Cosmos 1408 - Orbit

View from above orbital plane
View from above orbital plane
View from above satellite
View from above satellite

Ground track
Ground track

The orbit data is extracted from the following two-line orbital elements,

1 13552U 82092A   13137.81090095  .00005559  00000-0  30747-3 0  1219
2 13552 082.5723 319.7466 0024547 220.1642 239.1643 15.13415898670466
Epoch (UTC): 17 May 2013 19:27:41
Eccentricity: 0.0024547
inclination: 82.5723°
perigee height: 509 km
apogee height: 543 km
right ascension of ascending node: 319.7466°
argument of perigee: 220.1642°
revolutions per day: 15.13415898
mean anomaly at epoch: 239.1643°
orbit number at epoch: 67046

The dashed part of the orbit path shows where the satellite is in the earth's shadow,  

Developed and maintained by Chris Peat, Heavens-Above GmbH. Please read the updated FAQ before sending e-mail. Imprint. DLR